Wind_Speed
4 6 7 7 9 10 12 13 14 14 15 16 18 18 19 20 20 22 23 23 23 23 23 24 24 23 23 23 24 24 25 25 25 25 26 26 26 26 26 27 27 26 25 24
6 7 9 10 11 13 15 15 16 16 17 17 19 20 19 21 21 23 24 23 24 25 25 25 25 24 23 23 24 25 25 26 25 25 26 26 27 26 26 26 26 26 25 24
8 8 10 12 14 15 14 16 17 17 17 18 20 20 20 21 22 23 24 25 26 26 26 26 25 23 23 24 24 25 25 25 25 25 25 25 25 25 25 24 25 24 24 24
10 11 12 14 15 16 15 16 16 17 16 16 16 18 20 21 21 23 23 24 26 25 25 25 24 24 24 24 24 24 24 24 24 24 24 24 24 24 24 24 23 22 22 23
9 11 13 14 15 15 15 15 14 14 14 13 14 17 18 21 22 23 25 25 24 24 25 24 23 23 24 23 23 23 22 22 22 22 22 23 23 23 23 22 22 22 22 21
8 11 13 13 13 14 14 14 14 14 14 14 14 15 19 22 21 23 24 24 23 24 23 22 22 23 22 21 21 20 20 19 19 20 21 22 22 22 22 21 21 21 21 21
9 11 14 15 14 14 13 13 13 13 12 14 15 16 20 22 21 23 23 22 22 22 21 21 21 20 20 19 18 18 18 18 18 19 20 20 21 22 21 20 20 21 21 20
10 11 13 15 14 15 13 13 12 13 13 14 13 16 20 21 21 22 21 21 22 22 22 22 21 19 18 18 17 16 17 17 18 19 19 19 20 19 18 18 19 19 20 20
11 12 13 15 14 14 13 13 12 13 13 13 14 16 18 18 20 21 21 21 21 22 21 21 20 18 18 17 16 16 16 17 18 19 19 19 17 17 17 17 17 18 19 20
12 12 12 14 14 12 13 13 12 12 13 13 14 16 18 20 21 21 22 22 22 21 20 19 19 18 18 17 16 16 16 17 18 19 18 17 16 16 17 18 18 18 18 18
12 13 12 12 13 13 13 12 12 13 13 14 15 17 18 20 20 21 22 22 21 21 20 19 19 19 18 17 17 17 17 17 17 16 16 16 16 16 17 17 17 16 16 16
13 14 13 11 12 13 13 12 13 14 14 14 16 17 18 19 20 20 21 21 21 21 20 18 19 19 18 17 17 17 17 16 16 16 15 15 15 16 16 16 15 15 15 17
14 14 13 11 11 12 14 13 13 14 14 14 16 16 18 18 19 19 20 20 19 19 17 18 19 18 17 16 16 16 16 16 16 15 15 15 15 15 15 15 15 15 16 16
13 13 12 11 11 12 13 13 13 14 14 14 15 16 18 18 19 19 19 19 19 19 18 18 18 17 17 15 15 15 16 16 16 15 15 16 16 15 15 15 15 16 16 17
14 14 13 13 13 12 12 13 13 13 14 15 15 16 17 18 18 19 19 19 18 18 18 18 17 16 16 16 16 16 16 16 16 16 16 16 15 15 14 14 15 16 16 17
14 14 14 13 13 13 13 13 14 14 14 15 15 16 18 18 18 18 18 17 17 18 18 18 17 16 15 17 17 17 16 16 16 16 16 16 15 15 15 16 16 16 17 17
15 15 15 13 12 13 13 14 15 15 15 15 16 17 18 18 18 17 18 18 18 19 18 18 17 15 16 18 17 17 16 16 16 17 16 16 15 15 15 15 16 17 17 17
16 16 15 14 14 14 14 15 16 16 16 16 16 17 18 18 17 17 18 18 18 18 18 18 17 17 17 17 17 17 16 17 17 16 16 16 15 15 15 15 16 17 17 17
16 16 16 15 14 15 14 16 16 16 16 16 17 18 18 17 17 17 17 17 18 18 19 18 18 18 17 17 16 17 16 16 16 16 16 15 16 15 16 16 16 16 17 16
17 17 17 16 15 16 16 18 18 18 18 17 18 18 18 18 18 17 17 18 18 18 19 18 18 18 17 16 16 17 16 16 16 16 15 16 16 16 16 16 16 17 17 15
19 18 18 17 17 17 17 19 19 18 18 18 19 19 19 19 19 19 18 18 19 18 18 18 18 17 17 17 17 16 16 16 16 16 16 16 16 17 17 16 17 17 17 16
19 20 19 19 18 19 20 20 20 19 20 20 20 20 19 19 19 19 19 19 18 18 18 18 17 17 17 17 17 16 16 16 16 16 16 17 17 17 17 17 17 17 17 17
21 21 20 20 20 20 21 21 22 22 22 21 21 20 20 20 20 20 20 19 19 19 19 18 17 18 18 17 17 16 16 16 16 17 17 17 17 17 18 17 17 17 17 17
22 22 22 21 21 21 21 22 22 23 23 22 22 21 21 20 20 21 21 21 21 20 20 18 18 18 18 18 17 16 16 16 16 16 17 17 17 17 17 18 18 17 17 18
24 24 23 23 23 22 22 23 23 24 24 23 23 22 22 21 21 21 22 22 22 21 20 19 18 18 18 18 17 16 16 16 16 17 17 17 17 17 17 18 18 18 18 18
26 26 25 24 24 24 24 24 24 24 24 23 23 22 22 22 22 22 22 21 21 20 20 20 19 18 18 17 17 17 16 17 17 17 16 16 18 17 18 18 18 18 19 18
Wind_Direction
339 336 319 308 302 309 301 298 301 300 298 300 300 301 305 311 308 306 308 309 311 309 306 301 300 297 294 291 288 288 288 286 286 286 286 289 291 291 289 288 288 287 287 285
308 302 302 300 298 303 301 302 303 300 302 304 302 304 307 305 303 302 303 306 306 306 306 303 302 300 295 292 289 288 287 286 286 287 286 288 290 290 289 288 287 287 284 281
294 288 291 293 296 298 298 297 299 298 301 306 306 306 305 304 302 301 303 305 306 305 305 303 303 301 295 293 291 287 287 286 286 287 286 287 289 290 289 291 289 287 284 281
294 291 291 296 296 297 299 299 302 306 307 306 305 304 302 302 305 305 306 306 307 307 304 302 303 301 298 294 293 291 291 289 287 286 286 288 288 287 288 289 288 286 286 284
295 301 300 298 299 302 303 302 303 311 315 307 301 295 299 300 301 305 305 307 309 309 306 303 304 303 301 297 295 296 295 294 291 290 287 288 287 286 288 288 286 285 284 283
305 305 301 302 304 306 310 312 316 316 314 299 292 288 289 292 297 300 303 309 312 311 308 306 307 304 302 300 299 298 298 298 296 294 292 289 287 285 286 287 286 286 285 284
307 305 305 307 313 311 313 320 323 319 309 300 298 295 289 295 299 303 306 310 312 312 313 314 313 311 308 305 303 302 302 301 301 300 299 296 291 287 286 285 285 286 287 285
301 300 306 306 311 308 313 318 323 313 305 301 304 299 294 297 304 308 311 314 315 314 315 317 318 318 315 310 307 305 306 304 302 302 303 301 297 292 288 288 287 287 287 284
303 306 306 308 315 311 313 311 309 308 313 310 300 297 301 303 305 309 314 319 319 317 320 320 319 320 317 314 310 305 307 306 303 303 305 305 302 298 295 295 295 294 292 289
298 305 310 317 321 320 319 313 305 314 312 304 304 301 299 308 309 312 315 317 320 320 320 321 320 321 316 317 318 314 310 308 305 304 307 308 304 301 298 298 299 298 295 293
308 310 309 312 319 320 316 311 307 308 308 309 310 311 312 312 312 313 315 319 322 321 321 321 321 322 321 320 320 319 317 315 312 311 310 310 309 306 303 300 298 296 295 294
313 318 315 313 319 320 319 314 312 315 312 314 313 312 315 315 314 316 319 322 323 323 324 323 324 323 323 324 322 322 321 322 318 315 313 312 312 308 305 303 302 300 300 299
314 317 317 318 322 321 318 318 318 320 317 315 318 320 321 323 319 317 319 321 323 326 325 323 325 326 326 327 326 325 326 326 327 324 321 319 316 313 309 305 303 303 304 304
307 309 312 311 308 311 315 315 317 317 317 315 318 320 319 317 315 317 320 321 323 325 326 326 327 327 330 332 330 328 328 330 330 329 328 326 320 316 314 310 309 308 308 308
303 305 309 307 304 304 305 309 312 311 312 313 315 317 318 317 316 318 321 322 322 325 325 327 327 328 331 332 330 327 329 332 332 331 329 330 328 324 320 316 315 315 312 309
307 309 308 308 306 305 303 309 310 307 307 309 313 315 315 318 320 323 324 324 325 327 327 329 327 326 328 329 329 329 329 331 332 330 329 329 328 325 323 319 317 317 315 313
307 312 312 310 310 309 313 315 312 313 310 309 310 312 317 319 322 324 324 324 325 327 326 328 327 327 329 332 333 333 329 329 330 328 327 327 326 325 322 321 321 318 315 312
304 306 309 310 311 310 318 313 313 315 314 310 309 312 317 320 320 321 323 325 326 327 325 326 328 328 328 329 330 330 330 330 331 329 327 325 327 328 325 322 323 320 318 316
300 301 303 306 308 308 311 308 309 312 312 309 311 314 317 317 319 319 321 322 324 324 323 324 329 332 331 329 330 330 330 333 334 334 331 328 327 329 328 325 324 324 321 318
297 298 297 299 301 301 305 301 304 308 307 309 311 313 314 314 315 318 318 317 319 321 323 325 328 328 328 327 328 330 331 333 335 336 333 331 330 331 330 328 326 326 328 325
294 296 297 297 297 298 300 300 303 304 306 308 310 311 312 312 313 315 315 315 316 317 320 322 325 326 326 327 327 327 332 332 332 332 330 330 331 334 333 329 328 328 329 328
290 294 297 297 294 293 296 300 301 302 303 304 307 308 308 308 309 310 311 312 312 312 314 317 319 322 323 323 325 325 326 329 328 327 328 328 329 331 331 329 328 326 325 327
285 289 292 292 291 291 294 296 298 299 300 302 304 304 303 303 305 306 306 307 307 309 312 313 315 317 318 319 320 322 324 324 324 325 326 326 326 329 329 328 327 326 325 326
280 283 285 287 290 291 293 293 295 296 297 298 298 299 299 299 301 303 303 304 305 306 309 310 312 312 313 314 315 315 318 321 323 325 325 325 326 330 330 329 329 329 327 326
278 281 282 284 286 287 288 290 294 296 297 297 296 296 299 299 300 302 303 302 302 304 306 308 309 311 309 309 310 312 313 315 318 320 322 324 328 331 332 331 330 330 329 327
275 277 279 281 283 286 288 290 292 294 297 297 295 295 298 299 299 299 301 302 303 304 304 306 307 308 307 306 306 307 310 313 315 316 318 321 324 327 327 328 328 330 330 328
Height
5860 5860 5861 5861 5861 5860 5859 5857 5856 5855 5853 5850 5847 5845 5842 5837 5835 5832 5830 5827 5824 5822 5819 5817 5814 5812 5811 5810 5809 5809 5808 5807 5807 5806 5805 5804 5803 5802 5800 5799 5798 5797 5796 5795
5860 5860 5860 5860 5859 5858 5856 5854 5853 5852 5849 5845 5843 5841 5839 5835 5831 5829 5827 5825 5822 5819 5815 5812 5810 5808 5806 5805 5804 5803 5802 5801 5801 5800 5799 5798 5797 5796 5794 5793 5792 5791 5791 5790
5858 5859 5858 5858 5856 5855 5854 5852 5849 5847 5845 5842 5840 5838 5835 5832 5829 5826 5823 5821 5818 5815 5811 5808 5806 5803 5802 5800 5799 5798 5797 5795 5794 5794 5793 5792 5791 5790 5789 5788 5787 5786 5785 5784
5856 5856 5856 5855 5854 5852 5850 5848 5845 5843 5841 5840 5838 5835 5831 5828 5825 5822 5820 5817 5814 5810 5806 5803 5801 5798 5796 5795 5793 5792 5790 5789 5789 5788 5787 5787 5786 5785 5784 5782 5781 5780 5780 5779
5854 5854 5852 5851 5850 5848 5846 5844 5842 5840 5839 5837 5836 5834 5829 5824 5822 5820 5817 5814 5810 5806 5802 5799 5797 5794 5791 5789 5788 5786 5785 5784 5784 5782 5782 5781 5780 5779 5778 5777 5776 5775 5774 5773
5851 5850 5849 5848 5847 5845 5843 5841 5840 5838 5837 5835 5833 5832 5827 5822 5819 5817 5814 5810 5807 5802 5798 5794 5792 5790 5787 5784 5783 5781 5780 5780 5779 5778 5777 5775 5775 5774 5773 5772 5771 5770 5769 5768
5850 5849 5847 5845 5844 5843 5841 5840 5838 5836 5835 5833 5830 5828 5824 5820 5817 5815 5811 5807 5804 5800 5796 5792 5789 5786 5783 5780 5779 5777 5776 5775 5774 5773 5772 5771 5770 5768 5768 5767 5766 5765 5764 5763
5849 5848 5845 5843 5842 5840 5838 5837 5836 5834 5832 5830 5827 5824 5821 5817 5814 5811 5808 5804 5800 5797 5793 5790 5786 5783 5780 5778 5776 5774 5773 5772 5770 5769 5768 5766 5765 5763 5762 5762 5760 5759 5758 5758
5846 5845 5843 5841 5839 5837 5836 5834 5833 5831 5828 5827 5825 5821 5816 5813 5811 5808 5805 5801 5798 5794 5791 5787 5783 5780 5778 5775 5773 5771 5770 5769 5767 5765 5763 5762 5760 5759 5757 5757 5755 5754 5753 5753
5843 5842 5841 5839 5837 5835 5834 5832 5830 5828 5826 5824 5822 5818 5814 5811 5808 5805 5802 5798 5795 5792 5788 5785 5781 5778 5776 5773 5771 5768 5767 5766 5764 5761 5759 5757 5756 5755 5754 5753 5751 5750 5749 5748
5840 5839 5838 5837 5835 5833 5831 5830 5827 5826 5823 5821 5818 5817 5811 5808 5805 5802 5798 5795 5792 5788 5785 5781 5778 5776 5773 5770 5768 5766 5764 5762 5760 5758 5756 5754 5752 5751 5749 5748 5747 5746 5744 5743
5838 5837 5835 5834 5833 5831 5828 5827 5825 5823 5821 5818 5816 5816 5808 5805 5802 5799 5796 5793 5790 5786 5781 5778 5776 5773 5770 5768 5766 5764 5762 5759 5757 5755 5753 5751 5749 5747 5746 5744 5743 5742 5740 5739
5836 5835 5833 5832 5832 5829 5826 5824 5822 5820 5818 5816 5814 5813 5806 5802 5799 5796 5793 5790 5787 5784 5780 5777 5774 5771 5768 5766 5764 5761 5759 5757 5755 5752 5750 5747 5745 5744 5742 5741 5739 5738 5736 5734
5834 5833 5832 5830 5828 5826 5824 5822 5820 5818 5816 5813 5812 5809 5805 5801 5797 5794 5790 5788 5785 5782 5779 5776 5773 5770 5767 5764 5762 5760 5757 5755 5752 5750 5747 5745 5743 5741 5739 5738 5736 5734 5732 5731
5832 5830 5828 5826 5825 5823 5821 5819 5818 5816 5814 5811 5809 5806 5803 5798 5795 5792 5789 5786 5783 5780 5777 5774 5771 5768 5766 5763 5760 5758 5755 5753 5751 5748 5745 5743 5741 5739 5737 5735 5733 5731 5729 5727
5828 5827 5826 5824 5822 5820 5818 5817 5815 5813 5811 5808 5806 5803 5799 5794 5792 5790 5787 5784 5781 5778 5775 5772 5769 5767 5764 5761 5758 5756 5754 5751 5749 5746 5744 5741 5739 5737 5735 5732 5730 5728 5726 5723
5825 5824 5822 5821 5819 5817 5815 5814 5812 5810 5808 5805 5803 5801 5796 5794 5791 5788 5785 5782 5780 5777 5774 5771 5768 5765 5762 5759 5756 5754 5752 5749 5747 5744 5742 5739 5737 5735 5732 5730 5728 5725 5722 5719
5823 5821 5820 5818 5817 5815 5815 5810 5809 5807 5805 5802 5800 5797 5794 5792 5789 5786 5783 5780 5778 5775 5772 5769 5766 5763 5760 5758 5755 5752 5750 5747 5745 5742 5740 5737 5735 5732 5730 5728 5725 5722 5719 5716
5820 5819 5817 5816 5814 5812 5811 5807 5805 5804 5802 5799 5797 5794 5792 5789 5786 5783 5781 5778 5776 5773 5770 5767 5764 5762 5759 5756 5753 5751 5748 5746 5743 5740 5738 5735 5733 5730 5728 5726 5723 5719 5716 5713
5817 5815 5814 5812 5810 5809 5808 5804 5802 5802 5798 5796 5793 5791 5788 5786 5784 5782 5779 5776 5774 5771 5768 5765 5763 5760 5757 5755 5752 5749 5747 5744 5741 5739 5737 5734 5731 5729 5726 5723 5720 5716 5713 5711
5812 5811 5810 5809 5807 5805 5803 5800 5800 5799 5796 5793 5790 5788 5785 5783 5781 5779 5776 5773 5771 5768 5766 5763 5760 5758 5755 5753 5750 5747 5745 5742 5740 5737 5735 5732 5729 5727 5724 5720 5717 5714 5711 5708
5808 5807 5806 5804 5803 5803 5799 5796 5796 5794 5791 5789 5787 5785 5782 5779 5777 5775 5773 5770 5768 5765 5763 5760 5758 5755 5753 5750 5748 5745 5743 5740 5738 5735 5733 5730 5727 5724 5721 5718 5715 5712 5709 5706
5804 5803 5801 5801 5800 5796 5794 5792 5790 5789 5787 5785 5783 5781 5778 5776 5774 5771 5769 5767 5764 5762 5760 5757 5755 5752 5750 5748 5745 5743 5740 5738 5735 5733 5730 5728 5725 5721 5718 5715 5712 5709 5706 5703
5798 5797 5796 5795 5794 5792 5789 5787 5785 5784 5782 5780 5778 5776 5774 5772 5770 5767 5765 5762 5760 5758 5756 5753 5751 5749 5747 5745 5742 5740 5738 5735 5733 5730 5728 5725 5722 5719 5716 5712 5709 5706 5703 5700
5793 5791 5791 5790 5788 5787 5785 5782 5781 5779 5777 5775 5773 5771 5769 5767 5765 5762 5760 5758 5756 5754 5751 5749 5747 5745 5743 5741 5739 5737 5734 5732 5730 5728 5725 5722 5719 5716 5713 5710 5706 5703 5700 5696
5786 5785 5784 5784 5782 5781 5779 5777 5775 5773 5771 5769 5767 5766 5764 5761 5759 5757 5755 5753 5750 5749 5747 5745 5743 5741 5739 5737 5735 5733 5731 5729 5726 5724 5722 5719 5716 5713 5710 5707 5704 5700 5696 5693